Weather History for Tullahoma, TN

Change the Weather History Date:

Thursday, October 11, 2012

  Actual Average Record
Temperature  
Mean Temperature 52 °F -  
Max Temperature 66 °F 73 °F 78 °F (2013)
Min Temperature 37 °F 47 °F 48 °F (2013)
Degree Days  
Heating Degree Days 14    
Growing Degree Days 2 (Base 50)    
Moisture  
Dew Point 43 °F    
Average Humidity 69    
Maximum Humidity 93    
Minimum Humidity 40    
Precipitation  
Precipitation 0.00 in - - ()
Sea Level Pressure  
Sea Level Pressure 30.26 in    
Wind  
Wind Speed 2 mph ()    
Max Wind Speed 9 mph    
Max Gust Speed -    
Visibility 10.0 miles    
Events      
Averages and records for this station are not official NWS values.
T = Trace of Precipitation, MM = Missing Value Source: Averaged Metar Reports

Daily Weather History Graph

Daily Weather History Graph

Search for Another Location

Airport:

Trip Planner

Search our weather history database for the weather conditions in past years. The results will help you decide how hot, cold, wet, or windy it might be!

Date:

Astronomy

Oct. 11, 2012 Rise Set
Actual Time 6:48 AM CDT 6:14 PM CDT
Civil Twilight 6:22 AM CDT 6:39 PM CDT
Nautical Twilight 5:53 AM CDT 7:09 PM CDT
Astronomical Twilight 5:23 AM CDT 7:38 PM CDT
Moon 2:34 AM CDT (10/11) 3:43 PM CDT (10/11)
Length of Visible Light 12h 17m
Length of Day
11h 26m
Waning Crescent, 18% of the Moon is Illuminated
Oct 11
Waning Crescent
Oct 15
New
Oct 21
First Quarter
Oct 29
Full
Nov 6
Last Quarter

Hourly Weather History & Observations

Time (CDT) Temp. Windchill Dew Point Humidity Pressure Visibility Wind Dir Wind Speed Gust Speed Precip Events Conditions
12:15 AM 39.2 °F - 37.4 °F 93% 30.24 in 10.0 mi Calm Calm - N/A   Clear
12:35 AM 39.2 °F - 37.4 °F 93% 30.24 in 10.0 mi Calm Calm - N/A   Clear
1:35 AM 39.2 °F - 37.4 °F 93% 30.24 in 10.0 mi Calm Calm - N/A   Clear
1:55 AM 39.2 °F - 37.4 °F 93% 30.24 in 10.0 mi Calm Calm - N/A   Clear
2:15 AM 39.2 °F 37.0 °F 35.6 °F 87% 30.24 in 10.0 mi NE 3.5 mph - N/A   Clear
2:35 AM 44.6 °F 42.2 °F 39.2 °F 81% 30.23 in 10.0 mi NE 4.6 mph - N/A   Clear
2:55 AM 44.6 °F 43.1 °F 39.2 °F 81% 30.23 in 10.0 mi NE 3.5 mph - N/A   Clear
3:15 AM 44.6 °F 43.1 °F 37.4 °F 76% 30.23 in 10.0 mi ENE 3.5 mph - N/A   Clear
3:35 AM 44.6 °F 43.1 °F 37.4 °F 76% 30.24 in 10.0 mi ENE 3.5 mph - N/A   Clear
3:55 AM 42.8 °F 40.1 °F 37.4 °F 81% 30.24 in 10.0 mi ENE 4.6 mph - N/A   Clear
4:15 AM 42.8 °F 40.1 °F 37.4 °F 81% 30.24 in 10.0 mi NE 4.6 mph - N/A   Clear
4:35 AM 42.8 °F - 37.4 °F 81% 30.25 in 10.0 mi Calm Calm - N/A   Clear
4:55 AM 41.0 °F 39.0 °F 37.4 °F 87% 30.25 in 10.0 mi ENE 3.5 mph - N/A   Clear
5:15 AM 39.2 °F - 35.6 °F 87% 30.26 in 10.0 mi Calm Calm - N/A   Clear
5:35 AM 37.4 °F - 35.6 °F 93% 30.26 in 10.0 mi Calm Calm - N/A   Unknown
5:55 AM 37.4 °F - 35.6 °F 93% 30.25 in 10.0 mi Calm Calm - N/A   Unknown
6:15 AM 37.4 °F - 35.6 °F 93% 30.25 in 10.0 mi Calm Calm - N/A   Unknown
6:35 AM 39.2 °F - 37.4 °F 93% 30.25 in 10.0 mi Calm Calm - N/A   Unknown
7:35 AM 41.0 °F - 37.4 °F 87% 30.27 in 10.0 mi Calm Calm - N/A   Unknown
7:55 AM 42.8 °F - 39.2 °F 87% 30.27 in 10.0 mi Calm Calm - N/A   Unknown
8:15 AM 44.6 °F - 39.2 °F 81% 30.28 in 10.0 mi Calm Calm - N/A   Unknown
8:35 AM 46.4 °F 45.2 °F 39.2 °F 76% 30.28 in 10.0 mi East 3.5 mph - N/A   Unknown
8:55 AM 48.2 °F - 39.2 °F 71% 30.29 in 10.0 mi Calm Calm - N/A   Unknown
9:15 AM 51.8 °F - 41.0 °F 67% 30.29 in 10.0 mi SE 5.8 mph - N/A   Unknown
9:35 AM 53.6 °F - 41.0 °F 62% 30.30 in 10.0 mi SSE 3.5 mph - N/A   Clear
9:55 AM 55.4 °F - 42.8 °F 63% 30.30 in 10.0 mi SSW 3.5 mph - N/A   Clear
10:15 AM 57.2 °F - 42.8 °F 59% 30.30 in 10.0 mi SSE 4.6 mph - N/A   Clear
10:35 AM 59.0 °F - 42.8 °F 55% 30.29 in 10.0 mi Variable 5.8 mph - N/A   Clear
10:55 AM 60.8 °F - 42.8 °F 52% 30.29 in 10.0 mi SSE 5.8 mph - N/A   Clear
11:15 AM 62.6 °F - 42.8 °F 48% 30.30 in 10.0 mi Variable 4.6 mph - N/A   Clear
11:35 AM 62.6 °F - 42.8 °F 48% 30.29 in 10.0 mi SSW 5.8 mph - N/A   Partly Cloudy
11:55 AM 64.4 °F - 42.8 °F 45% 30.29 in 10.0 mi SSW 9.2 mph - N/A   Partly Cloudy
12:15 PM 64.4 °F - 39.2 °F 40% 30.29 in 10.0 mi Calm Calm - N/A   Mostly Cloudy
12:35 PM 64.4 °F - 42.8 °F 45% 30.28 in 10.0 mi West 5.8 mph - N/A   Mostly Cloudy
12:55 PM 66.2 °F - 42.8 °F 43% 30.26 in 10.0 mi WSW 5.8 mph - N/A   Scattered Clouds
1:15 PM 66.2 °F - 42.8 °F 43% 30.26 in 10.0 mi Variable 6.9 mph - N/A   Clear
1:35 PM 66.2 °F - 44.6 °F 46% 30.26 in 10.0 mi WNW 5.8 mph - N/A   Partly Cloudy
1:55 PM 66.2 °F - 42.8 °F 43% 30.25 in 10.0 mi WNW 5.8 mph - N/A   Partly Cloudy
2:35 PM 66.2 °F - 44.6 °F 46% 30.25 in 10.0 mi WNW 5.8 mph - N/A   Mostly Cloudy
2:55 PM 64.4 °F - 44.6 °F 49% 30.26 in 10.0 mi West 5.8 mph - N/A   Mostly Cloudy
3:15 PM 66.2 °F - 44.6 °F 46% 30.27 in 10.0 mi West 6.9 mph - N/A   Mostly Cloudy
3:35 PM 64.4 °F - 44.6 °F 49% 30.26 in 10.0 mi West 3.5 mph - N/A   Mostly Cloudy
3:55 PM 64.4 °F - 44.6 °F 49% 30.25 in 10.0 mi NW 3.5 mph - N/A   Mostly Cloudy
4:15 PM 62.6 °F - 44.6 °F 52% 30.26 in 10.0 mi NW 4.6 mph - N/A   Overcast
4:35 PM 62.6 °F - 46.4 °F 55% 30.26 in 10.0 mi WNW 4.6 mph - N/A   Overcast
5:35 PM 60.8 °F - 48.2 °F 63% 30.25 in 10.0 mi SW 5.8 mph - N/A   Overcast
5:55 PM 60.8 °F - 48.2 °F 63% 30.25 in 10.0 mi SW 5.8 mph - N/A   Overcast
6:35 PM 59.0 °F - 46.4 °F 63% 30.24 in 10.0 mi SSW 3.5 mph - N/A   Overcast
6:55 PM 59.0 °F - 48.2 °F 67% 30.25 in 10.0 mi SW 4.6 mph - N/A   Overcast
7:15 PM 59.0 °F - 48.2 °F 67% 30.25 in 10.0 mi Calm Calm - N/A   Overcast
7:35 PM 59.0 °F - 48.2 °F 67% 30.25 in 10.0 mi Calm Calm - N/A   Overcast
8:15 PM 57.2 °F - 48.2 °F 72% 30.26 in 10.0 mi SW 3.5 mph - N/A   Overcast
8:35 PM 59.0 °F - 50.0 °F 72% 30.25 in 10.0 mi Calm Calm - N/A   Overcast
8:55 PM 59.0 °F - 50.0 °F 72% 30.26 in 10.0 mi Calm Calm - N/A   Overcast
9:15 PM 57.2 °F - 48.2 °F 72% 30.26 in 10.0 mi Calm Calm - N/A   Overcast
9:35 PM 59.0 °F - 48.2 °F 67% 30.26 in 10.0 mi Calm Calm - N/A   Overcast
9:55 PM 57.2 °F - 50.0 °F 77% 30.26 in 10.0 mi Calm Calm - N/A   Overcast
10:35 PM 57.2 °F - 51.8 °F 82% 30.26 in 10.0 mi Calm Calm - N/A   Overcast
10:55 PM 57.2 °F - 48.2 °F 72% 30.26 in 10.0 mi Calm Calm - N/A   Overcast
11:15 PM 59.0 °F - 48.2 °F 67% 30.26 in 10.0 mi Calm Calm - N/A   Overcast
11:35 PM 59.0 °F - 50.0 °F 72% 30.26 in 10.0 mi Calm Calm - N/A   Overcast
11:55 PM 59.0 °F - 50.0 °F 72% 30.25 in 10.0 mi Calm Calm - N/A   Overcast